| time (UTC) | temp F | wind direction | speed knots | gust knots | rain 1hr in | rain 24hr in | rain mn in | humidity % | barometer mb |
| 20260507233100 | 50 | 117 | 1.7 | 7.8 | 0.00 | 0.00 | 0.00 | 62 | 1009.5 |
| 20260507231559 | 52 | 162 | 4.3 | 10.4 | 0.00 | 0.00 | 0.00 | 58 | 1009.5 |
| 20260507230110 | 54 | 0 | 0.9 | 7.8 | 0.00 | 0.00 | 0.00 | 54 | 1009.3 |
| 20260507224601 | 54 | 138 | 1.7 | 5.2 | 0.00 | 0.00 | 0.00 | 53 | 1008.8 |
| 20260507223057 | 54 | 153 | 1.7 | 6.1 | 0.00 | 0.00 | 0.00 | 53 | 1008.8 |
| 20260507221603 | 54 | 220 | 0.9 | 8.7 | 0.00 | 0.00 | 0.00 | 53 | 1008.7 |
| 20260507220101 | 55 | 184 | 2.6 | 10.4 | 0.00 | 0.00 | 0.00 | 50 | 1008.5 |
| 20260507214555 | 56 | 0 | 3.5 | 7.8 | 0.00 | 0.00 | 0.00 | 49 | 1008.3 |
| 20260507213056 | 56 | 171 | 0.9 | 8.7 | 0.00 | 0.00 | 0.00 | 46 | 1008.2 |
| 20260507211602 | 56 | 100 | 0.9 | 8.7 | 0.00 | 0.00 | 0.00 | 46 | 1008.1 |
| 20260507210108 | 57 | 272 | 2.6 | 9.6 | 0.00 | 0.00 | 0.00 | 46 | 1008.0 |
| 20260507204558 | 57 | 127 | 1.7 | 6.1 | 0.00 | 0.00 | 0.00 | 45 | 1008.1 |
| 20260507203125 | 57 | 52 | 2.6 | 7.0 | 0.00 | 0.00 | 0.00 | 46 | 1008.0 |
| 20260507201557 | 56 | 312 | 1.7 | 7.8 | 0.00 | 0.00 | 0.00 | 47 | 1008.2 |
| 20260507200101 | 56 | 34 | 0.9 | 6.1 | 0.00 | 0.00 | 0.00 | 50 | 1008.3 |
| 20260507194618 | 56 | 185 | 0.9 | 7.0 | 0.00 | 0.00 | 0.00 | 49 | 1008.4 |
| 20260507193103 | 56 | 240 | 3.5 | 8.7 | 0.00 | 0.00 | 0.00 | 50 | 1008.4 |
| 20260507191601 | 56 | 81 | 0.9 | 6.1 | 0.00 | 0.00 | 0.00 | 49 | 1008.6 |
| 20260507184558 | 57 | 83 | 1.7 | 9.6 | 0.00 | 0.00 | 0.00 | 47 | 1008.7 |
| 20260507183100 | 57 | 360 | 1.7 | 8.7 | 0.00 | 0.00 | 0.00 | 47 | 1008.8 |
| 20260507181559 | 57 | 339 | 3.5 | 8.7 | 0.00 | 0.00 | 0.00 | 51 | 1008.8 |
| 20260507180055 | 57 | 104 | 1.7 | 7.8 | 0.00 | 0.00 | 0.00 | 47 | 1009.0 |
| 20260507174604 | 57 | 343 | 0.9 | 8.7 | 0.00 | 0.00 | 0.00 | 47 | 1008.9 |
| 20260507173129 | 58 | 217 | 1.7 | 7.8 | 0.00 | 0.00 | 0.00 | 47 | 1009.1 |
| 20260507171558 | 56 | 290 | 0.9 | 9.6 | 0.00 | 0.00 | 0.00 | 50 | 1009.3 |
| 20260507170058 | 57 | 119 | 2.6 | 7.8 | 0.00 | 0.00 | 0.00 | 47 | 1009.5 |
| 20260507164557 | 57 | 355 | 1.7 | 7.8 | 0.00 | 0.00 | 0.00 | 47 | 1009.5 |
| 20260507163102 | 56 | 155 | 1.7 | 9.6 | 0.00 | 0.00 | 0.00 | 52 | 1009.7 |
| 20260507161612 | 56 | 294 | 1.7 | 11.3 | 0.00 | 0.00 | 0.00 | 55 | 1009.7 |
| 20260507154558 | 55 | 319 | 0.9 | 5.2 | 0.00 | 0.00 | 0.00 | 53 | 1010.1 |
| 20260507153059 | 55 | 360 | 2.6 | 10.4 | 0.00 | 0.00 | 0.00 | 55 | 1010.2 |
| 20260507151558 | 54 | 325 | 2.6 | 7.8 | 0.00 | 0.00 | 0.00 | 56 | 1010.3 |
| 20260507150057 | 54 | 20 | 1.7 | 8.7 | 0.00 | 0.00 | 0.00 | 54 | 1010.4 |
| 20260507144612 | 54 | 0 | 3.5 | 9.6 | 0.00 | 0.00 | 0.00 | 57 | 1010.7 |
| 20260507143103 | 54 | 325 | 1.7 | 7.0 | 0.00 | 0.00 | 0.00 | 58 | 1010.9 |
| 20260507141601 | 53 | 0 | 1.7 | 6.1 | 0.00 | 0.00 | 0.00 | 61 | 1011.0 |
| 20260507140056 | 53 | 360 | 1.7 | 7.0 | 0.00 | 0.00 | 0.00 | 57 | 1011.2 |
| 20260507134557 | 52 | 105 | 2.6 | 7.8 | 0.00 | 0.02 | 0.00 | 60 | 1011.2 |
| 20260507133139 | 51 | 111 | 2.6 | 7.0 | 0.00 | 0.02 | 0.00 | 61 | 1011.2 |
| 20260507131554 | 50 | 12 | 2.6 | 7.0 | 0.00 | 0.02 | 0.00 | 66 | 1011.3 |
| 20260507124601 | 45 | 0 | 0.0 | 2.6 | 0.00 | 0.05 | 0.00 | 89 | 1011.4 |
| 20260507123054 | 43 | 0 | 0.0 | 0.9 | 0.00 | 0.05 | 0.00 | 93 | 1011.6 |
| 20260507121555 | 39 | 0 | 0.0 | 0.9 | 0.00 | 0.05 | 0.00 | 92 | 1011.5 |
| 20260507120055 | 37 | 0 | 0.0 | 1.7 | 0.00 | 0.05 | 0.00 | 92 | 1011.4 |
| 20260507114609 | 35 | 58 | 0.9 | 1.7 | 0.00 | 0.08 | 0.00 | 90 | 1011.6 |
| 20260507113055 | 34 | 58 | 0.9 | 1.7 | 0.00 | 0.08 | 0.00 | 88 | 1011.4 |
| 20260507111603 | 34 | 0 | 0.0 | 1.7 | 0.00 | 0.08 | 0.00 | 87 | 1011.3 |
| 20260507104605 | 34 | 24 | 0.0 | 1.7 | 0.00 | 0.18 | 0.00 | 87 | 1011.2 |
| 20260507103057 | 34 | 0 | 0.0 | 0.9 | 0.00 | 0.18 | 0.00 | 86 | 1011.2 |
| 20260507101603 | 34 | 0 | 0.0 | 1.7 | 0.00 | 0.18 | 0.00 | 86 | 1011.1 |
| 20260507100058 | 34 | 24 | 0.9 | 1.7 | 0.00 | 0.18 | 0.00 | 86 | 1011.1 |
| 20260507094602 | 34 | 0 | 0.0 | 0.0 | 0.00 | 0.25 | 0.00 | 86 | 1010.9 |
| 20260507093105 | 34 | 0 | 0.0 | 0.0 | 0.00 | 0.25 | 0.00 | 85 | 1011.0 |
| 20260507091558 | 34 | 0 | 0.0 | 0.0 | 0.00 | 0.25 | 0.00 | 85 | 1011.1 |
| 20260507090105 | 34 | 0 | 0.0 | 0.0 | 0.00 | 0.25 | 0.00 | 84 | 1011.1 |
| 20260507084601 | 35 | 0 | 0.0 | 0.0 | 0.00 | 0.35 | 0.00 | 83 | 1011.2 |
| 20260507083056 | 35 | 0 | 0.0 | 0.0 | 0.00 | 0.35 | 0.00 | 84 | 1011.1 |
| 20260507081557 | 36 | 0 | 0.0 | 0.0 | 0.00 | 0.35 | 0.00 | 83 | 1011.2 |
| 20260507080101 | 36 | 0 | 0.0 | 0.0 | 0.00 | 0.35 | 0.00 | 83 | 1011.3 |
| 20260507074558 | 37 | 0 | 0.0 | 0.0 | 0.00 | 0.35 | 0.00 | 82 | 1011.3 |
| 20260507073109 | 38 | 0 | 0.0 | 0.0 | 0.00 | 0.35 | 0.00 | 82 | 1011.3 |
| 20260507071557 | 39 | 0 | 0.0 | 0.0 | 0.00 | 0.35 | 0.00 | 81 | 1011.3 |
| 20260507070105 | 40 | 0 | 0.0 | 0.0 | 0.00 | 0.35 | 0.00 | 80 | 1011.4 |
| 20260507064559 | 40 | 0 | 0.0 | 0.0 | 0.00 | 0.38 | 0.00 | 80 | 1011.3 |
| 20260507063054 | 40 | 0 | 0.0 | 0.0 | 0.00 | 0.38 | 0.00 | 80 | 1011.5 |
| 20260507061556 | 41 | 0 | 0.0 | 0.0 | 0.00 | 0.38 | 0.00 | 79 | 1011.6 |
| 20260507060100 | 41 | 0 | 0.0 | 0.0 | 0.00 | 0.38 | 0.00 | 78 | 1011.7 |
| 20260507054557 | 42 | 0 | 0.0 | 0.0 | 0.00 | 0.45 | 0.00 | 77 | 1011.7 |
| 20260507053124 | 43 | 0 | 0.0 | 0.0 | 0.00 | 0.45 | 0.00 | 76 | 1012.0 |
| 20260507051601 | 43 | 0 | 0.0 | 0.0 | 0.00 | 0.45 | 0.00 | 77 | 1012.1 |
| 20260507050112 | 43 | 0 | 0.0 | 0.0 | 0.00 | 0.45 | 0.00 | 76 | 1012.2 |
| 20260507044622 | 43 | 0 | 0.0 | 0.0 | 0.00 | 0.46 | 0.00 | 75 | 1012.3 |
| 20260507043111 | 44 | 0 | 0.0 | 0.0 | 0.00 | 0.46 | 0.00 | 75 | 1012.2 |
| 20260507041557 | 44 | 0 | 0.0 | 0.0 | 0.00 | 0.46 | 0.00 | 74 | 1012.3 |
| 20260507040106 | 44 | 0 | 0.0 | 1.7 | 0.00 | 0.46 | 0.00 | 73 | 1012.4 |
| 20260507034604 | 44 | 126 | 0.9 | 3.5 | 0.00 | 0.46 | 0.46 | 73 | 1012.2 |
| 20260507033124 | 44 | 83 | 0.0 | 2.6 | 0.00 | 0.46 | 0.46 | 72 | 1012.1 |
| 20260507031604 | 44 | 0 | 0.0 | 1.7 | 0.00 | 0.46 | 0.46 | 72 | 1012.0 |
| 20260507030110 | 44 | 0 | 0.0 | 2.6 | 0.00 | 0.46 | 0.46 | 74 | 1012.1 |
| 20260507024614 | 44 | 0 | 0.9 | 1.7 | 0.00 | 0.46 | 0.46 | 73 | 1011.9 |
| 20260507023102 | 44 | 0 | 0.0 | 1.7 | 0.00 | 0.46 | 0.46 | 74 | 1011.7 |
| 20260507021558 | 44 | 0 | 0.0 | 0.9 | 0.00 | 0.46 | 0.46 | 76 | 1011.5 |
| 20260507020104 | 44 | 0 | 0.0 | 1.7 | 0.00 | 0.46 | 0.46 | 75 | 1011.4 |
| 20260507014605 | 45 | 0 | 0.0 | 0.9 | 0.00 | 0.52 | 0.46 | 75 | 1011.3 |
| 20260507013103 | 45 | 0 | 0.0 | 0.9 | 0.00 | 0.52 | 0.46 | 75 | 1011.2 |
| 20260507011559 | 46 | 0 | 0.0 | 0.9 | 0.00 | 0.52 | 0.46 | 72 | 1011.4 |
| 20260507010056 | 46 | 0 | 0.0 | 0.9 | 0.00 | 0.52 | 0.46 | 73 | 1011.3 |
| 20260507004557 | 47 | 0 | 0.0 | 0.9 | 0.00 | 0.52 | 0.46 | 71 | 1011.3 |
| 20260507003104 | 48 | 0 | 0.0 | 1.7 | 0.00 | 0.52 | 0.46 | 69 | 1011.4 |
| 20260507001602 | 48 | 186 | 0.0 | 6.1 | 0.00 | 0.52 | 0.46 | 67 | 1011.2 |
| 20260507000056 | 48 | 0 | 0.0 | 5.2 | 0.00 | 0.52 | 0.46 | 65 | 1011.6 |
| 20260506234605 | 49 | 123 | 0.9 | 3.5 | 0.00 | 0.52 | 0.46 | 63 | 1011.2 |